ITY210 LIMJ-LIEO

Flight info

Callsign ITY210
Flight time 0h 54m
Altitude 19000
Route UNITA M858 TORTU/N0455F370 A9 CORSI
Aircraft A320/M-SDE3FGHIRWY/LB1

Departure

Time 2026-05-06 23:44
Airport Genoa Cristoforo Colombo Airport (LIMJ)

Arrival

Time 2026-05-07 00:39
Airport Olbia Costa Smeralda Airport (LIEO)
Time Latitude Longitude Altitude Speed Heading
2026-05-06 23:11 44.41421 8.85035 20 ft 0 kts 15°
2026-05-06 23:34 44.41409 8.85030 20 ft 4 kts 14°
2026-05-06 23:34 44.41383 8.85023 22 ft 4 kts
2026-05-06 23:34 44.41356 8.85022 24 ft 4 kts 345°
2026-05-06 23:35 44.41338 8.85037 21 ft 2 kts 287°
2026-05-06 23:35 44.41337 8.85040 22 ft 0 kts 285°
2026-05-06 23:38 44.41339 8.85030 22 ft 4 kts 285°
2026-05-06 23:38 44.41348 8.84980 21 ft 9 kts 284°
2026-05-06 23:38 44.41362 8.84903 20 ft 8 kts 284°
2026-05-06 23:38 44.41375 8.84830 21 ft 8 kts 284°
2026-05-06 23:39 44.41387 8.84764 23 ft 7 kts 284°
2026-05-06 23:39 44.41398 8.84707 20 ft 6 kts 284°
2026-05-06 23:39 44.41413 8.84627 20 ft 16 kts 282°
2026-05-06 23:39 44.41364 8.84491 20 ft 17 kts 234°
2026-05-06 23:40 44.41318 8.84347 20 ft 17 kts 276°
2026-05-06 23:40 44.41347 8.84194 20 ft 15 kts 286°
2026-05-06 23:40 44.41375 8.84057 20 ft 14 kts 284°
2026-05-06 23:40 44.41398 8.83934 20 ft 12 kts 284°
2026-05-06 23:41 44.41418 8.83823 21 ft 11 kts 284°
2026-05-06 23:41 44.41444 8.83688 21 ft 18 kts 285°
2026-05-06 23:41 44.41476 8.83526 20 ft 16 kts 285°
2026-05-06 23:41 44.41506 8.83380 21 ft 15 kts 285°
2026-05-06 23:42 44.41532 8.83247 22 ft 13 kts 285°
2026-05-06 23:42 44.41565 8.83078 20 ft 28 kts 285°
2026-05-06 23:42 44.41617 8.82807 20 ft 29 kts 284°
2026-05-06 23:42 44.41662 8.82574 20 ft 21 kts 277°
2026-05-06 23:43 44.41594 8.82504 18 ft 12 kts 197°
2026-05-06 23:43 44.41520 8.82528 17 ft 12 kts 112°
2026-05-06 23:43 44.41500 8.82632 19 ft 10 kts 105°
2026-05-06 23:43 44.41481 8.82735 19 ft 12 kts 105°
2026-05-06 23:44 44.41415 8.83056 21 ft 75 kts 105°
2026-05-06 23:44 44.41203 8.84151 23 ft 153 kts 103°
2026-05-06 23:44 44.40899 8.85732 471 ft 179 kts 110°
2026-05-06 23:44 44.40476 8.87451 1165 ft 193 kts 121°
2026-05-06 23:45 44.39937 8.88446 1631 ft 197 kts 138°
2026-05-06 23:45 44.38243 8.89585 2519 ft 217 kts 172°
2026-05-06 23:45 44.37211 8.89757 3050 ft 226 kts 172°
2026-05-06 23:45 44.35649 8.90190 4036 ft 224 kts 165°
2026-05-06 23:46 44.34230 8.90793 5408 ft 202 kts 163°
2026-05-06 23:46 44.32937 8.91414 6425 ft 194 kts 163°
2026-05-06 23:46 44.31646 8.92054 6890 ft 198 kts 163°
2026-05-06 23:46 44.30344 8.92702 7501 ft 198 kts 164°
2026-05-06 23:47 44.29036 8.93339 8136 ft 200 kts 168°
2026-05-06 23:47 44.27668 8.93405 8708 ft 198 kts 198°
2026-05-06 23:47 44.26443 8.92537 9298 ft 200 kts 215°
2026-05-06 23:47 44.25278 8.91437 9927 ft 203 kts 215°
2026-05-06 23:48 44.24102 8.90327 10543 ft 205 kts 215°
2026-05-06 23:48 44.22918 8.89212 11178 ft 206 kts 215°
2026-05-06 23:48 44.21738 8.88103 11795 ft 207 kts 216°
2026-05-06 23:48 44.20536 8.86976 12443 ft 209 kts 216°
2026-05-06 23:49 44.19329 8.85845 13094 ft 210 kts 216°
2026-05-06 23:49 44.18114 8.84707 13740 ft 211 kts 216°
2026-05-06 23:49 44.16893 8.83564 14322 ft 212 kts 216°
2026-05-06 23:49 44.15665 8.82415 14890 ft 213 kts 216°
2026-05-06 23:50 44.14324 8.81505 15429 ft 220 kts 195°
2026-05-06 23:50 44.11321 8.82870 16155 ft 263 kts 132°
2026-05-06 23:50 44.10475 8.85102 17041 ft 256 kts 118°
2026-05-06 23:51 44.09735 8.87271 17871 ft 241 kts 128°
2026-05-06 23:51 44.08770 8.89160 18311 ft 242 kts 139°
2026-05-06 23:51 44.07527 8.90804 18479 ft 250 kts 150°
2026-05-06 23:51 44.06095 8.92111 19053 ft 241 kts 156°
2026-05-06 23:52 44.04582 8.93318 19058 ft 266 kts 160°
2026-05-06 23:52 44.02860 8.94511 19057 ft 290 kts 161°
2026-05-06 23:52 44.00953 8.95787 18962 ft 317 kts 160°
2026-05-06 23:52 43.98904 8.97193 18950 ft 341 kts 158°
2026-05-06 23:53 43.96748 8.98814 18946 ft 363 kts 157°
2026-05-06 23:53 43.94419 9.00368 18952 ft 379 kts 163°
2026-05-06 23:53 43.91861 9.01480 18951 ft 392 kts 173°
2026-05-06 23:53 43.89120 9.01875 18951 ft 400 kts 184°
2026-05-06 23:54 43.86344 9.01579 18934 ft 401 kts 189°
2026-05-06 23:54 43.83562 9.01188 18950 ft 402 kts 189°
2026-05-06 23:54 43.80778 9.00819 18950 ft 402 kts 188°
2026-05-06 23:54 43.77988 9.00473 18950 ft 402 kts 188°
2026-05-06 23:55 43.75198 9.00143 18953 ft 402 kts 188°
2026-05-06 23:55 43.72408 8.99824 18950 ft 402 kts 188°
2026-05-06 23:55 43.69616 8.99510 18956 ft 402 kts 188°
2026-05-06 23:55 43.66825 8.99198 18940 ft 402 kts 188°
2026-05-06 23:56 43.64033 8.98883 18949 ft 402 kts 188°
2026-05-06 23:56 43.61248 8.98562 18955 ft 402 kts 188°
2026-05-06 23:56 43.58496 8.98241 18958 ft 402 kts 188°
2026-05-06 23:56 43.55710 8.97916 18960 ft 402 kts 188°
2026-05-06 23:57 43.52924 8.97588 18962 ft 401 kts 188°
2026-05-06 23:57 43.50145 8.97249 18963 ft 401 kts 188°
2026-05-06 23:57 43.47359 8.96899 18952 ft 401 kts 189°
2026-05-06 23:57 43.44579 8.96547 18959 ft 401 kts 189°
2026-05-06 23:58 43.41800 8.96196 18962 ft 401 kts 189°
2026-05-06 23:58 43.39025 8.95852 18971 ft 400 kts 189°
2026-05-06 23:58 43.36249 8.95518 18973 ft 400 kts 188°
2026-05-06 23:58 43.33474 8.95202 18974 ft 400 kts 188°
2026-05-06 23:59 43.30693 8.94895 18979 ft 400 kts 188°
2026-05-06 23:59 43.27912 8.94595 18959 ft 400 kts 188°
2026-05-06 23:59 43.25136 8.94295 18963 ft 400 kts 188°
2026-05-06 23:59 43.22361 8.93988 18966 ft 400 kts 188°
2026-05-07 00:00 43.19585 8.93674 18964 ft 400 kts 188°
2026-05-07 00:00 43.16811 8.93348 18968 ft 400 kts 188°
2026-05-07 00:00 43.14039 8.93016 18972 ft 400 kts 188°
2026-05-07 00:00 43.11265 8.92681 18975 ft 400 kts 188°
2026-05-07 00:01 43.08491 8.92348 18975 ft 400 kts 188°
2026-05-07 00:01 43.05718 8.92018 18971 ft 400 kts 188°
2026-05-07 00:01 43.02943 8.91689 18971 ft 400 kts 188°
2026-05-07 00:01 43.00161 8.91362 18975 ft 401 kts 188°
2026-05-07 00:02 42.97382 8.91038 18977 ft 401 kts 188°
2026-05-07 00:02 42.94602 8.90715 18979 ft 401 kts 188°
2026-05-07 00:02 42.91822 8.90392 18981 ft 401 kts 188°
2026-05-07 00:02 42.89040 8.90073 18983 ft 401 kts 188°
2026-05-07 00:03 42.86255 8.89757 18959 ft 402 kts 188°
2026-05-07 00:03 42.83470 8.89439 18963 ft 402 kts 188°
2026-05-07 00:03 42.80680 8.89120 18969 ft 403 kts 188°
2026-05-07 00:03 42.77882 8.88811 18972 ft 403 kts 188°
2026-05-07 00:04 42.75082 8.88517 18982 ft 404 kts 187°
2026-05-07 00:04 42.72279 8.88219 18985 ft 404 kts 188°
2026-05-07 00:04 42.69479 8.87907 18988 ft 403 kts 188°
2026-05-07 00:04 42.66684 8.87587 18981 ft 403 kts 188°
2026-05-07 00:05 42.63886 8.87261 18980 ft 404 kts 188°
2026-05-07 00:05 42.61081 8.86930 18981 ft 404 kts 188°
2026-05-07 00:05 42.58281 8.86600 18981 ft 404 kts 188°
2026-05-07 00:05 42.55473 8.86275 18982 ft 404 kts 188°
2026-05-07 00:06 42.52664 8.85956 18983 ft 405 kts 188°
2026-05-07 00:06 42.49856 8.85640 18983 ft 405 kts 188°
2026-05-07 00:06 42.47045 8.85324 18985 ft 405 kts 188°
2026-05-07 00:06 42.44238 8.85007 18986 ft 405 kts 188°
2026-05-07 00:07 42.41424 8.84686 18984 ft 405 kts 188°
2026-05-07 00:07 42.38613 8.84366 18985 ft 405 kts 188°
2026-05-07 00:07 42.35804 8.84048 18980 ft 405 kts 187°
2026-05-07 00:07 42.32993 8.83730 18983 ft 405 kts 188°
2026-05-07 00:08 42.30217 8.83416 18982 ft 406 kts 188°
2026-05-07 00:08 42.27396 8.83094 18989 ft 406 kts 188°
2026-05-07 00:08 42.24580 8.82772 18974 ft 406 kts 188°
2026-05-07 00:08 42.21759 8.82453 18974 ft 407 kts 188°
2026-05-07 00:09 42.18939 8.82137 18978 ft 407 kts 188°
2026-05-07 00:09 42.16117 8.81823 18979 ft 407 kts 188°
2026-05-07 00:09 42.13292 8.81507 18979 ft 407 kts 188°
2026-05-07 00:09 42.10466 8.81188 18981 ft 408 kts 188°
2026-05-07 00:10 42.07638 8.80869 18985 ft 408 kts 188°
2026-05-07 00:10 42.04800 8.80550 18979 ft 408 kts 188°
2026-05-07 00:10 42.01970 8.80233 18977 ft 409 kts 187°
2026-05-07 00:10 41.99136 8.79919 18979 ft 409 kts 187°
2026-05-07 00:11 41.96295 8.79605 18981 ft 409 kts 187°
2026-05-07 00:11 41.93458 8.79291 18983 ft 409 kts 187°
2026-05-07 00:11 41.90617 8.78980 18984 ft 410 kts 187°
2026-05-07 00:11 41.87778 8.78668 18985 ft 410 kts 187°
2026-05-07 00:12 41.84938 8.78353 18973 ft 410 kts 188°
2026-05-07 00:12 41.82096 8.78037 18975 ft 410 kts 188°
2026-05-07 00:12 41.79256 8.77718 18977 ft 410 kts 188°
2026-05-07 00:12 41.76405 8.77538 18976 ft 413 kts 181°
2026-05-07 00:13 41.73532 8.77775 18980 ft 414 kts 180°
2026-05-07 00:13 41.70660 8.78027 18981 ft 414 kts 180°
2026-05-07 00:13 41.67779 8.78274 18982 ft 414 kts 180°
2026-05-07 00:13 41.64906 8.78521 18970 ft 414 kts 180°
2026-05-07 00:14 41.62022 8.78765 18969 ft 414 kts 180°
2026-05-07 00:14 41.59182 8.79006 18973 ft 415 kts 180°
2026-05-07 00:14 41.56300 8.79252 18975 ft 415 kts 180°
2026-05-07 00:14 41.53419 8.79500 18976 ft 415 kts 180°
2026-05-07 00:15 41.50532 8.79748 18977 ft 415 kts 180°
2026-05-07 00:15 41.47651 8.79995 18977 ft 415 kts 180°
2026-05-07 00:15 41.44765 8.80243 18979 ft 415 kts 180°
2026-05-07 00:15 41.41880 8.80492 18970 ft 416 kts 180°
2026-05-07 00:16 41.38991 8.80743 18975 ft 416 kts 180°
2026-05-07 00:16 41.36106 8.81150 18974 ft 419 kts 173°
2026-05-07 00:16 41.33283 8.82214 18977 ft 425 kts 162°
2026-05-07 00:16 41.30622 8.83961 18979 ft 430 kts 152°
2026-05-07 00:17 41.28162 8.86263 18986 ft 433 kts 148°
2026-05-07 00:17 41.25733 8.88640 18987 ft 433 kts 148°
2026-05-07 00:17 41.23305 8.91015 18989 ft 434 kts 148°
2026-05-07 00:17 41.20912 8.93357 18822 ft 420 kts 148°
2026-05-07 00:18 41.18606 8.95619 18703 ft 403 kts 148°
2026-05-07 00:18 41.16391 8.97785 18592 ft 389 kts 148°
2026-05-07 00:18 41.14278 8.99844 18476 ft 375 kts 148°
2026-05-07 00:18 41.12207 9.01850 18360 ft 362 kts 149°
2026-05-07 00:19 41.10201 9.03754 18233 ft 349 kts 150°
2026-05-07 00:19 41.08239 9.05564 18095 ft 337 kts 150°
2026-05-07 00:19 41.06337 9.07296 17967 ft 326 kts 151°
2026-05-07 00:19 41.04498 9.08967 17837 ft 315 kts 151°
2026-05-07 00:20 41.02747 9.10661 17630 ft 312 kts 142°
2026-05-07 00:20 41.01428 9.12961 17297 ft 318 kts 120°
2026-05-07 00:20 41.00844 9.15804 16942 ft 325 kts 96°
2026-05-07 00:20 41.01131 9.18777 16600 ft 328 kts 71°
2026-05-07 00:21 41.02217 9.21423 16267 ft 328 kts 54°
2026-05-07 00:21 41.03527 9.23895 15928 ft 327 kts 54°
2026-05-07 00:21 41.04831 9.26356 15607 ft 326 kts 55°
2026-05-07 00:21 41.06003 9.28910 15289 ft 323 kts 72°
2026-05-07 00:22 41.06268 9.31784 14991 ft 312 kts 103°
2026-05-07 00:22 41.05510 9.34380 14663 ft 298 kts 132°
2026-05-07 00:22 41.04035 9.36200 14336 ft 288 kts 150°
2026-05-07 00:22 41.02388 9.37716 14001 ft 288 kts 151°
2026-05-07 00:23 41.00690 9.39071 13693 ft 280 kts 166°
2026-05-07 00:23 40.98824 9.39338 13364 ft 266 kts 194°
2026-05-07 00:23 40.97162 9.38417 12991 ft 258 kts 220°
2026-05-07 00:23 40.95995 9.36636 12610 ft 258 kts 235°
2026-05-07 00:24 40.94973 9.34680 12232 ft 258 kts 235°
2026-05-07 00:24 40.93952 9.32727 11885 ft 258 kts 235°
2026-05-07 00:24 40.92931 9.30782 11553 ft 257 kts 235°
2026-05-07 00:24 40.91911 9.28845 11211 ft 256 kts 235°
2026-05-07 00:25 40.90896 9.26913 10888 ft 255 kts 235°
2026-05-07 00:25 40.89887 9.24992 10529 ft 254 kts 235°
2026-05-07 00:25 40.88881 9.23074 10211 ft 253 kts 234°
2026-05-07 00:25 40.88213 9.21807 9993 ft 253 kts 234°
2026-05-07 00:26 40.87209 9.19904 9623 ft 252 kts 235°
2026-05-07 00:26 40.86210 9.18006 9244 ft 251 kts 235°
2026-05-07 00:26 40.85214 9.16112 8850 ft 251 kts 235°
2026-05-07 00:26 40.84232 9.14250 8675 ft 243 kts 235°
2026-05-07 00:27 40.83270 9.12433 8363 ft 241 kts 235°
2026-05-07 00:27 40.82317 9.10636 8123 ft 237 kts 235°
2026-05-07 00:27 40.81373 9.08855 7966 ft 237 kts 235°
2026-05-07 00:27 40.80430 9.07075 7805 ft 236 kts 236°
2026-05-07 00:28 40.79488 9.05299 7675 ft 236 kts 236°
2026-05-07 00:28 40.78549 9.03529 7520 ft 236 kts 236°
2026-05-07 00:28 40.77608 9.01758 7354 ft 236 kts 236°
2026-05-07 00:28 40.76676 9.00003 7211 ft 237 kts 236°
2026-05-07 00:29 40.75604 8.98356 7061 ft 238 kts 216°
2026-05-07 00:29 40.74055 8.97636 6907 ft 241 kts 182°
2026-05-07 00:30 40.69628 9.00784 6412 ft 247 kts 145°
2026-05-07 00:30 40.68231 9.02093 6239 ft 247 kts 145°
2026-05-07 00:30 40.66908 9.03508 6066 ft 243 kts 128°
2026-05-07 00:30 40.66276 9.05490 5915 ft 235 kts 93°
2026-05-07 00:31 40.66566 9.07561 5767 ft 232 kts 59°
2026-05-07 00:31 40.67562 9.09213 5619 ft 231 kts 48°
2026-05-07 00:31 40.68519 9.10898 5463 ft 226 kts 54°
2026-05-07 00:31 40.69356 9.12600 5325 ft 217 kts 56°
2026-05-07 00:32 40.70150 9.14253 5188 ft 211 kts 56°
2026-05-07 00:32 40.70961 9.15853 5065 ft 210 kts 54°
2026-05-07 00:32 40.71790 9.17432 4940 ft 209 kts 53°
2026-05-07 00:32 40.72621 9.19003 4816 ft 209 kts 53°
2026-05-07 00:33 40.73450 9.20570 4683 ft 208 kts 53°
2026-05-07 00:33 40.74277 9.22133 4560 ft 208 kts 53°
2026-05-07 00:33 40.75102 9.23694 4446 ft 207 kts 53°
2026-05-07 00:33 40.75923 9.25247 4358 ft 207 kts 54°
2026-05-07 00:34 40.76744 9.26803 4268 ft 207 kts 53°
2026-05-07 00:34 40.77567 9.28363 4175 ft 207 kts 53°
2026-05-07 00:34 40.78389 9.29921 4033 ft 207 kts 53°
2026-05-07 00:34 40.79208 9.31474 3941 ft 206 kts 53°
2026-05-07 00:35 40.80029 9.33032 3740 ft 207 kts 53°
2026-05-07 00:35 40.80851 9.34592 3483 ft 206 kts 53°
2026-05-07 00:35 40.81661 9.36131 3149 ft 200 kts 53°
2026-05-07 00:35 40.82437 9.37607 2821 ft 191 kts 54°
2026-05-07 00:36 40.83177 9.39015 2536 ft 182 kts 53°
2026-05-07 00:36 40.83878 9.40347 2254 ft 175 kts 54°
2026-05-07 00:36 40.84555 9.41636 1983 ft 166 kts 54°
2026-05-07 00:36 40.85193 9.42851 1725 ft 157 kts 54°
2026-05-07 00:37 40.85799 9.44005 1486 ft 149 kts 54°
2026-05-07 00:37 40.86382 9.45115 1261 ft 146 kts 54°
2026-05-07 00:37 40.86957 9.46210 1039 ft 145 kts 54°
2026-05-07 00:37 40.87528 9.47300 815 ft 144 kts 55°
2026-05-07 00:38 40.88098 9.48385 591 ft 144 kts 56°
2026-05-07 00:38 40.88669 9.49475 367 ft 145 kts 56°
2026-05-07 00:38 40.89246 9.50576 143 ft 146 kts 56°
2026-05-07 00:38 40.89803 9.51666 38 ft 136 kts 56°
2026-05-07 00:39 40.90175 9.52377 33 ft 50 kts 54°
2026-05-07 00:39 40.90238 9.52493 31 ft 8 kts 54°
2026-05-07 00:39 40.90342 9.52669 30 ft 28 kts 38°
2026-05-07 00:39 40.90451 9.52620 30 ft 17 kts 281°
2026-05-07 00:40 40.90446 9.52459 30 ft 18 kts 255°
2026-05-07 00:40 40.90372 9.52340 32 ft 17 kts 235°
2026-05-07 00:40 40.90300 9.52204 33 ft 19 kts 234°
2026-05-07 00:40 40.90224 9.52056 34 ft 20 kts 236°
2026-05-07 00:41 40.90184 9.51890 35 ft 19 kts 281°
2026-05-07 00:41 40.90214 9.51750 34 ft 14 kts 240°
2026-05-07 00:41 40.90161 9.51635 37 ft 15 kts 249°
2026-05-07 00:41 40.90198 9.51571 37 ft 8 kts 324°
2026-05-07 00:42 40.90207 9.51563 37 ft 0 kts 327°